Location: Ammerl�gen
(47.2167°N, 9.6000°E)
Time: 09:20:02
(UTC+00:00)

Cosmos 1140 Rocket - Pass Details

Date: 21 April 2021
Orbit: 745 x 767 km, 74.1° (Epoch: 06 May)

Event Time Altitude Azimuth Distance (km) Brightness Sun altitude
Rises 19:12:37 0° 171° (S) 3,175 6.3 -9.1°
Reaches altitude 10° 19:15:12 10° 160° (SSE) 2,255 5.5 -9.5°
Maximum altitude 19:19:35 30° 101° (E) 1,321 4.2 -10.1°
Drops below altitude 10° 19:24:01 10° 41° (NE) 2,269 5.9 -10.8°
Sets 19:26:37 0° 31° (NNE) 3,199 6.7 -11.2°
